Torna al catalogo

GRUS-3ALPHA

AttivoScienzaSSO
NORAD 64579·PAYLOAD·🇯🇵 Japan

Lanciato Jun 23, 2025 da Vandenberg Space Force Base

Loading…

Prossimi Passaggi (prossime 24 ore)

TLE

AggiornatoSource: Space-Track

Epoca: Sep 14, 2026, 14:47 UTC

1 64579U 25135BD  26257.61638922  .00001007  00000-0  10151-3 0  9995
2 64579  97.7839  10.9072 0004255  68.1270 292.0401 14.93318573 67224

Traccia GRUS-3ALPHA in tempo reale con AllMySat

Download on the App Store